Regional Weather Roundup
Issued by NWS

Home | Current Version | Previous Version | Text Only | Print | Product List | Glossary On
Versions: 1 2 3 4 5 6 7 8 9 10 11 12 13 14 15 16 17 18 19 20 21 22 23 24 25 26 27 28 29 30 31 32 33 34 35 36 37 38 39 40 41 42 43 44 45 46 47
000
ASUS45 KBOI 251710
RWRID
WEATHER ROUNDUP FOR IDAHO
NATIONAL WEATHER SERVICE BOISE ID
1000 AM MST THU DEC 25 2014

NOTE: "FAIR" INDICATES FEW OR NO CLOUDS BELOW 12000 FEET
WITH NO SIGNIFICANT WEATHER AND/OR OBSTRUCTIONS TO VISIBILITY

IDZ012-014-251800-
SOUTHWEST IDAHO


CITY           SKY/WX    TMP DP  RH WIND       PRES   REMARKS
BOISE          MOSUNNY   29  22  75 NW13      29.89R WCI  19
CALDWELL       MOSUNNY   34  19  55 SW24      29.95R WCI  21
MOUNTAIN HOME  CLOUDY    30  24  78 NW32G44   29.81R WCI  14
$$

IDZ016-017-251800-
SOUTHCENTRAL IDAHO


CITY           SKY/WX    TMP DP  RH WIND       PRES   REMARKS
JEROME         CLOUDY    27  23  85 W23G30    29.70R WCI  12
TWIN FALLS     MIX PCPN  28  23  81 W32G43    29.70R WCI  12
$$

IDZ019>023-251800-
SOUTHEAST IDAHO


CITY           SKY/WX    TMP DP  RH WIND       PRES   REMARKS
IDAHO FALLS    LGT SNOW  27  24  89 N25G33    29.60R VSB 3/4 WCI  12
POCATELLO      SNOW      29  28  96 VRB3      29.65R VSB 1/2
REXBURG        LGT SNOW  27  21  78 N17G24    29.60R WCI  14
$$

IDZ006-010-011-018-031-032-251800-
CENTRAL IDAHO MOUNTAINS


CITY           SKY/WX    TMP DP  RH WIND       PRES   REMARKS
MCCALL         FLURRIES  24  18  77 W9        29.85R WCI  14
HAILEY         CLOUDY    32  16  51 MISG      29.63R
STANLEY          N/A     23  13  65 NW12G18   29.72R WCI  12
SALMON         CLOUDY    30  18  59 N12       29.80R WCI  21
CHALLIS        CLOUDY    26  21  81 N8        29.76R WCI  18
$$

IDZ002-004-006-007-026-251800-
NORTHERN IDAHO


CITY           SKY/WX    TMP DP  RH WIND       PRES   REMARKS
LEWISTON       SUNNY     35  28  75 SE5       30.05R WCI  31
LOWELL           N/A     35  33  92 CALM      30.05R
COEUR D`ALENE  CLOUDY    28  27  93 W3        29.99R VSB 1/4
MULLAN PASS    HAZE      24  19  81 NW3       29.82R VSB 1/4
$$


USA.gov is the U.S. government's official web portal to all federal, state and local government web resources and services.